Preview of NWS' New Version of Forecast
This preview is not operational and should not be used for support decisions.
Latest weather observations around

Chattanooga, Lovell Field (KCHA)

Using English Units (Switch to International System of Units)
Date/ Time (EDT) Wind (mph) Vis. (mi) Weather Sky Cond. Temp (°F) Rel. Humidity Wind Chill (°F) Heat Index (°F) Pressure Precip. (in)
Air Dwpt 6 hour Altimeter (inHg) Sea level (inHg) 1 hr 3 hr 6 hr
Max Min
Jun 19 03:04 SSE 3 6 Light Rain and Fog/Mist BKN013 OVC032 72 70     93%   73 29.88   0    
Jun 19 02:53 S 7 10 Cloudy SCT015 OVC034 72 70     93%   73 29.88 29.85 0    
Jun 19 02:49 S 6 10 Cloudy FEW014 OVC036 72 70     94%   73 29.88   0    
Jun 19 02:00 S 8 10 Mostly Cloudy BKN019 73 69     87%   74 29.9        
Jun 19 01:53 S 7 10 Mostly Cloudy SCT018 BKN050 73 69     87%   74 29.9 29.87      
Jun 19 00:53 S 6 10 Partly Cloudy SCT017 74 69     85%   75 29.9 29.88      
Jun 18 23:53 S 8 10 Mostly Cloudy SCT018 SCT080 BKN250 75 70     84%   76 29.91 29.89      
Jun 18 22:53 S 7 10 Cloudy FEW015 SCT027 BKN100 OVC250 77 71     82%   78 29.9 29.88      
Jun 18 21:53 SSE 5 10 Mostly Cloudy FEW025 SCT100 BKN140 BKN250 77 71     82%   78 29.9 29.87      
Jun 18 20:53 S 6 10 Mostly Cloudy FEW024 SCT090 BKN120 BKN250 78 71     79%   79 29.89 29.87      
Jun 18 19:53 S 7 10 Cloudy FEW024 BKN140 OVC250 80 72     76%   84 29.89 29.87     1
Jun 18 18:53 SSE 5 10 Cloudy SCT030 SCT055 BKN100 OVC250 80 72     76%   84 29.89 29.87      
Jun 18 17:53 E 3 10 Mostly Cloudy SCT030 BKN045 BKN070 BKN250 81 73     77%   86 29.89 29.86 0    
Jun 18 16:53 Calm 10 Mostly Cloudy FEW025 SCT033 BKN150 BKN250 83 73     72%   89 29.92 29.89 0 0  
Jun 18 15:53 NE 6 10 Light Rain SCT030 SCT080 BKN250 79 73     82%   82 29.93 29.91 0    
Jun 18 15:26 3 10 Light Rain SCT019 SCT033 BKN080 BKN250 76 73     91%   77 29.95   0    
Jun 18 15:13 NW 6 2 Heavy Rain and Fog/Mist SCT019 BKN027 OVC250 75 74     96%   77 29.95   0    
Jun 18 14:53 NW 10 8 Rain FEW014 BKN020 BKN027 OVC250 77 74     90%   79 29.95 29.93 0    
Jun 18 14:30 Calm 10 Cloudy FEW014 BKN020 BKN029 OVC250 80 72     76%   84 29.95        
Jun 18 13:53 Calm 10 Cloudy FEW014 SCT030 BKN160 OVC250 80 72     76%   84 29.97 29.94     0
Jun 18 13:42 Calm 10 Cloudy FEW014 SCT030 BKN160 OVC250 80 72     76%   84 29.98        
Jun 18 12:53 Calm 10 Cloudy BKN009 BKN015 OVC080 78 74     87%   80 29.99 29.97 0    
Jun 18 11:53 Calm 10 Cloudy BKN009 OVC018 74 72     94%   75 29.99 29.97 0    
Jun 18 11:45 Calm 10 Cloudy BKN009 OVC018 74 72     94%   75 30   0    
Jun 18 10:53 S 3 9 Light Rain FEW005 BKN021 OVC027 74 72     94%   75 30.01 29.98 0 0  
Jun 18 09:53 Calm 10 Cloudy FEW005 BKN027 OVC035 73 71     94%   74 30.02 29.99 0    
Jun 18 09:26 S 3 7 Light Rain FEW005 SCT027 BKN060 OVC250 73 71     94%   74 30.02   0    
Jun 18 09:19 Calm 6 Thunderstorms and Rain and Fog/Mist FEW005 SCT027 OVC090 72 71     97%   73 30.01   0    
Jun 18 09:08 SSW 6 1.5 Thunderstorms and Rain and Fog/Mist FEW007 OVC027 72 70     93%   73 30.01   0    
Jun 18 09:02 SSW 8 1.5 Light Rain and Fog/Mist FEW007 OVC027 73 70     90%   74 30.01   0    
Jun 18 08:53 SSW 7 10 Cloudy FEW007 BKN027 OVC033 73 70     90%   74 30.01 29.99      
Jun 18 08:39 S 5 10 Cloudy FEW007 BKN027 OVC033 73 70     90%   74 30.01        
Jun 18 07:53 3 10 Cloudy FEW005 SCT050 BKN085 BKN170 OVC250 72 70     93%   73 30.01 29.99     0
Jun 18 06:53 S 3 10 Cloudy FEW005 FEW015 SCT095 BKN170 OVC250 72 70     93%   73 30.01 29.98      
Jun 18 05:55 SSE 5 10 Mostly Cloudy FEW005 SCT050 BKN095 72 70     93%   73 29.99        
Jun 18 05:53 SSE 5 10 Mostly Cloudy BKN095 72 70     93%   73 29.99 29.96      
Jun 18 04:53 ESE 5 10 Clear CLR 72 70     93%   73 29.98 29.95 0 0  
Jun 18 03:53 Calm 10 Light Rain FEW048 BKN100 73 72     96%   75 30 29.97 0    
Jun 18 03:37 SSE 3 8 Light Rain SCT007 SCT095 BKN110 74 73     97%   76 30.01   0    
Jun 18 03:09 Calm 10 Mostly Cloudy BKN006 BKN021 73 73     100%   75 30.01        
Jun 18 02:53 Calm 10 Mostly Cloudy FEW006 BKN022 74 72     94%   75 30.01 29.99      
Jun 18 02:35 Calm 10 Mostly Clear FEW006 FEW044 73 72     96%   75 30.02        
Jun 18 01:53 Calm 10 Mostly Clear FEW048 74 73     97%   76 30.01 29.99      
Jun 18 00:53 Calm 10 Partly Cloudy FEW050 SCT095 73 72     96%   75 30.02 30      
Jun 17 23:53 Calm 10 Cloudy SCT055 OVC250 75 72     90%   76 30.03 30      
Jun 17 22:53 NW 5 10 Cloudy SCT065 OVC250 74 73     97%   76 30.02 29.99      
Jun 17 21:53 Calm 10 Cloudy FEW140 OVC250 76 73     91%   77 30.01 29.98      
Jun 17 20:53 N 6 10 Mostly Cloudy SCT110 BKN180 BKN250 77 73     88%   79 30 29.98      
Jun 17 19:53 NNE 5 10 Mostly Cloudy FEW050 FEW140 BKN250 80 74     82%   85 29.98 29.96     0
Jun 17 18:53 NNE 6 10 Mostly Cloudy FEW045 SCT140 BKN250 81 72     74%   85 29.98 29.95      
Jun 17 17:53 N 5 10 Mostly Cloudy FEW040 SCT080 BKN250 80 72     76%   84 30 29.97 0    
Jun 17 17:26 NNW 7 10 Mostly Cloudy FEW030 BKN070 BKN090 BKN250 77 71     82%   78 30   0    
Jun 17 16:58 NNW 9 7 Thunderstorms and Rain FEW018 SCT040 BKN085 BKN250 75 73     94%   77 30   0    
Jun 17 16:53   1.75 Thunderstorms and Heavy Rain and Fog/Mist FEW020 BKN035 BKN075 OVC250 75 74     96%   77 30.01 29.98 0 0  
Jun 17 16:45 W 8 1.5 Thunderstorms and Heavy Rain and Fog/Mist BKN035 BKN055 OVC080 76 72     88%   77 30.02   0    
Jun 17 16:41 W 6 1.5 Heavy Rain and Fog/Mist SCT037 SCT055 BKN095 OVC250 78 71     79%   79 30.03   0    
Jun 17 16:20 5 10 Mostly Cloudy SCT042 SCT075 BKN100 BKN250 79 71     77%   82 30.01   0    
Jun 17 15:53 N 6 10 Light Rain SCT040 BKN080 BKN130 BKN250 81 71     72%   85 30.01 29.98 0    
Jun 17 15:46 NNW 11 10 Mostly Cloudy SCT035 SCT080 BKN130 BKN250 83 72     70%   88 30.01        
Jun 17 15:12 3 10 Thunderstorms SCT035 BKN120 BKN250 84 69     61%   88 30.01        
Jun 17 15:07 3 10 Mostly Cloudy SCT035 BKN120 BKN250 85 70     61%   89 30.01        
Jun 17 14:53 5 10 Mostly Cloudy SCT038 BKN120 BKN250 84 71     65%   89 30.02 29.99 0    
Jun 17 14:34 SSE 3 10 Mostly Cloudy SCT035 SCT080 BKN100 BKN250 80 69     69%   83 30.02   0    
Jun 17 14:31 Calm 10 Mostly Cloudy SCT035 SCT080 BKN100 BKN250 80 70     71%   83 30.02   0    
Jun 17 14:04 NNW 7 10 Mostly Cloudy SCT034 SCT070 BKN110 BKN250 79 67     67%   80 30.03        
Jun 17 13:53 WNW 7 10 Mostly Cloudy SCT032 SCT055 SCT090 BKN150 BKN250 78 68     71%   79 30.04 30.01 0   0
Jun 17 13:43 SE 8 10 Light Rain SCT045 SCT060 BKN090 BKN150 BKN250 77 68     74%   78 30.03   0    
Jun 17 13:29 SSE 8 10 Light Rain SCT045 SCT100 BKN150 BKN250 80 67     64%   82 30.03   0    
Jun 17 13:03 NNW 5 7 Thunderstorms and Rain SCT045 BKN055 BKN080 BKN150 83 70     65%   87 30.04   0    
Jun 17 12:58 7 10 Mostly Cloudy SCT040 BKN055 BKN150 BKN200 BKN250 87 67     51%   90 30.04        
Jun 17 12:53 S 7 10 Mostly Cloudy SCT044 BKN055 BKN150 BKN200 BKN250 87 68     53%   91 30.04 30.01      
Jun 17 11:53 6 10 Mostly Cloudy SCT035 SCT120 SCT180 BKN250 BKN300 86 70     59%   91 30.04 30.01      
Jun 17 10:53 WSW 5 10 Mostly Cloudy FEW030 SCT150 SCT200 BKN300 84 70     63%   88 30.05 30.02      
Jun 17 09:53 SSE 6 10 Mostly Cloudy SCT150 BKN250 BKN300 81 70     69%   84 30.05 30.02      
Jun 17 08:53 SSE 5 10 Mostly Cloudy FEW150 SCT250 BKN300 78 70     76%   79 30.04 30.01      
Jun 17 07:53 Calm 10 Mostly Cloudy SCT150 BKN250 BKN300 74 70     87%   75 30.04 30.01      
Jun 17 06:53 Calm 10 Mostly Cloudy SCT150 BKN250 BKN300 72 70     93%   73 30.01 29.98      
Jun 17 05:53 Calm 10 Mostly Cloudy SCT150 BKN250 BKN300 72 69     91%   73 29.99 29.96      
Jun 17 04:53 Calm 10 Clear CLR 72 70     93%   73 29.98 29.95      
Jun 17 03:53 Calm 10 Clear CLR 74 70     87%   75 29.98 29.95      
Jun 17 02:53 Calm 10 Clear CLR 75 70     84%   76 29.99 29.96      
Jun 17 01:53 S 3 10 Clear   77 70     79%   78 30.01 29.98      
Jun 17 00:53 S 5 10 Partly Cloudy SCT085 78 71     79%   79 30.02 30      
Jun 16 23:53 SSE 5 10 Mostly Cloudy SCT075 SCT150 BKN250 79 71     77%   82 30.03 30      
Jun 16 22:53 S 5 10 Mostly Cloudy SCT075 SCT150 BKN250 81 71     72%   85 30.01 29.98      
Jun 16 21:53 S 8 10 Mostly Cloudy FEW050 SCT075 SCT150 BKN250 82 70     67%   86 29.98 29.95      
Jun 16 20:53 S 10 10 Mostly Cloudy FEW050 FEW075 SCT150 BKN250 84 69     61%   88 29.95 29.93      
Jun 16 19:53 S 9 10 Mostly Cloudy FEW050 FEW075 SCT150 BKN250 87 70     57%   92 29.93 29.91     0
Jun 16 18:53 SSE 8 10 Mostly Cloudy FEW050 FEW075 SCT150 BKN250 89 70     53%   94 29.93 29.91      
Jun 16 17:53 S 11 10 Mostly Cloudy FEW050 FEW075 SCT150 BKN250 89 70     53%   94 29.96 29.93 0    
Jun 16 17:29 S 9 10 Light Rain SCT050 SCT075 BKN150 BKN250 88 70     55%   93 29.96   0    
Jun 16 17:05 SE 8 10 Thunderstorms SCT055 SCT080 BKN150 BKN250 87 68     53%   91 29.97        
Jun 16 16:53 S 14 10 Mostly Cloudy SCT055 SCT080 BKN150 BKN250 87 68     53%   91 29.96 29.94      
Jun 16 16:45 S 14 10 Mostly Cloudy SCT055 SCT080 BKN150 BKN250 87 69     55%   91 29.97        
Jun 16 16:07 S 11 10 Thunderstorms SCT055 BKN080 BKN150 BKN250 90 69     50%   95 29.97        
Jun 16 15:53   10 Mostly Cloudy SCT055 BKN080 BKN150 BKN250 90 68     49%   94 29.97 29.94      
Jun 16 14:53   10 Mostly Cloudy SCT050 BKN070 BKN150 BKN250 90 69     50%   95 29.99 29.96      
Jun 16 13:53 SW 9 10 Mostly Cloudy SCT050 BKN065 BKN150 BKN250 89 68     50%   93 30 29.97      
Jun 16 12:53 SSW 10 10 Mostly Cloudy SCT045 SCT150 BKN250 89 68     50%   93 30.01 29.98      
Jun 16 11:53 SW 9 10 Mostly Cloudy SCT041 SCT070 BKN150 87 68     53%   91 30.04 30.01      
Jun 16 10:53 7 10 Partly Cloudy SCT033 SCT070 SCT150 83 70     65%   87 30.06 30.03      
Jun 16 09:53 S 7 10 Partly Cloudy SCT055 SCT075 79 68     69%   80 30.08 30.05      
Jun 16 08:53 Calm 10 Partly Cloudy SCT055 SCT075 75 66     74%   76 30.08 30.05      
Jun 16 07:53 Calm 10 Partly Cloudy FEW055 SCT075 71 65     81%   72 30.06 30.04      
Jun 16 06:53 ESE 3 10 Mostly Cloudy SCT055 SCT075 BKN250 68 65     90%     30.05 30.03      
Jun 16 05:53 Calm 10 Partly Cloudy SCT065 SCT250 68 64     87%     30.03 30      
Jun 16 04:53 Calm 10 Clear CLR 67 64     90%     30.02 30      
Jun 16 03:53 Calm 10 Mostly Cloudy BKN070 70 65     84%     30.03 30      
May 14 14:53 ENE 8 10 Partly Cloudy SCT060 90 61     38%   90 30.02 29.99      
May 13 00:53 S 3 10 Clear CLR 69 59     70%     30.08 30.05      
May 12 22:53 Calm 10 Partly Cloudy FEW200 SCT250 71 60     68%   71 30.11 30.09      
May 12 03:53 Calm 10 Clear CLR 64 61     90%     30.1 30.08      
May 12 01:53 Calm 10 Clear CLR 67 62     84%     30.1 30.07      
May 11 22:53 S 6 10 Partly Cloudy FEW070 SCT250 76 62     62%   76 30.08 30.05      
May 11 20:53 SSW 3 10 Partly Cloudy FEW060 SCT070 SCT250 81 58     45%   81 30.06 30.03      
Jun 09 16:53 WNW 6 10 Partly Cloudy SCT060 SCT070 83 55     38%   82 29.95 29.93      
Jun 07 22:53 N 10 10 Clear CLR 69 54     59%     29.91 29.89